Location: Ladrillo (historical)
(32.8195°N, 117.2231°W)
Time: 05:03:36
(UTC+00:00)

Vanguard 3 - Pass Details

Date: 07 March 2021
Orbit: 508 x 3262 km, 33.3° (Epoch: 14 April)

Event Time Altitude Azimuth Distance (km) Brightness Sun altitude
Rises 22:32:43 0° 254° (WSW) 7,003 12.7 37.7°
Reaches altitude 10° 22:37:12 10° 254° (WSW) 6,118 12.7 36.9°
Maximum altitude 22:57:33 87° 168° (SSE) 3,036 10.6 33.5°
Drops below altitude 10° 23:12:56 10° 82° (E) 4,823 10.7 30.7°
Sets 23:16:00 0° 82° (E) 5,527 10.9 30.2°
